DW7205 Weather Reports


Display with metric or nautical units.
time (UTC)temp
F
wind
direction
speed
MPH
gust
MPH
rain 1hr
in
rain 24hr
in
rain mn
in
humidity
%
barometer
mb
20260507154556 51 311 4.0 20.0 0.00 0.63 0.00 63 1006.1
20260507153111 53 285 4.0 17.0 0.00 0.63 0.00 65 1005.8
20260507151559 51 285 2.0 14.0 0.00 0.63 0.00 65 1006.0
20260507150055 50 244 8.0 13.0 0.00 0.63 0.00 67 1006.2
20260507144553 49 281 6.0 10.0 0.00 0.63 0.00 71 1006.2
20260507143055 49 281 3.0 9.0 0.00 0.63 0.00 74 1006.1
20260507141553 49 272 7.0 15.0 0.00 0.63 0.00 72 1006.1
20260507140053 50 198 5.0 14.0 0.00 0.63 0.00 69 1006.0
20260507134553 50 308 4.0 10.0 0.00 0.63 0.00 72 1006.0
20260507133052 51 224 3.0 12.0 0.00 0.63 0.00 70 1006.0
20260507131551 52 294 1.0 15.0 0.00 0.63 0.00 68 1005.9
20260507130059 52 13 1.0 7.0 0.00 0.63 0.00 68 1006.1
20260507124607 51 259 1.0 4.0 0.00 0.63 0.00 70 1006.0
20260507123102 50 286 4.0 12.0 0.00 0.63 0.00 70 1005.9
20260507121555 50 252 2.0 11.0 0.00 0.63 0.00 72 1006.1
20260507120041 49 296 0.0 5.0 0.00 0.63 0.00 75 1006.3
20260507114538 48 287 1.0 8.0 0.00 0.63 0.00 81 1006.2
20260507113037 47 293 1.0 6.0 0.00 0.63 0.00 80 1006.1
20260507111536 45 270 1.0 6.0 0.00 0.63 0.00 90 1006.1
20260507110035 44 154 0.0 0.0 0.00 0.63 0.00 95 1006.3
20260507104535 42 154 0.0 2.0 0.00 0.63 0.00 96 1006.1
20260507103033 41 160 2.0 4.0 0.00 0.63 0.00 95 1005.8
20260507101539 40 288 0.0 4.0 0.00 0.63 0.00 95 1006.1
20260507100044 40 288 0.0 2.0 0.00 0.63 0.00 95 1006.0
20260507094527 41 288 0.0 2.0 0.00 0.63 0.00 95 1006.1
20260507093025 41 288 0.0 0.0 0.00 0.63 0.00 94 1006.0
20260507091522 42 288 0.0 4.0 0.00 0.63 0.00 94 1005.8
20260507090020 42 290 3.0 6.0 0.00 0.63 0.00 94 1005.9
20260507084518 43 292 0.0 1.0 0.00 0.63 0.00 94 1005.7
20260507083017 43 283 1.0 4.0 0.00 0.63 0.00 95 1005.7
20260507081517 43 309 0.0 3.0 0.00 0.63 0.00 95 1005.8
20260507080013 44 309 0.0 4.0 0.00 0.63 0.00 94 1005.7
20260507074509 44 311 0.0 2.0 0.00 0.63 0.00 93 1005.2
20260507073008 45 311 0.0 3.0 0.00 0.63 0.00 91 1004.7
20260507071509 45 319 0.0 8.0 0.00 0.63 0.00 88 1004.6
20260507070010 45 236 5.0 10.0 0.00 0.63 0.00 90 1005.0
20260507064505 45 294 4.0 13.0 0.00 0.63 0.00 90 1004.8
20260507063001 45 298 4.0 8.0 0.00 0.63 0.00 93 1004.6
20260507061600 45 294 2.0 8.0 0.00 0.63 0.00 93 1004.7
20260507060058 44 275 3.0 7.0 0.00 0.63 0.00 94 1004.2
20260507054554 45 310 2.0 9.0 0.00 0.63 0.00 94 1004.2
20260507053052 45 298 2.0 7.0 0.00 0.63 0.00 95 1004.2
20260507051548 46 276 1.0 7.0 0.00 0.63 0.00 96 1004.3
20260507050046 46 105 0.0 1.0 0.00 0.63 0.00 95 1004.1
20260507044546 47 151 1.0 4.0 0.00 0.63 0.00 95 1004.0
20260507043043 48 246 0.0 4.0 0.00 0.63 0.00 95 1003.9
20260507041545 48 260 0.0 5.0 0.01 0.63 0.00 94 1003.7
20260507040035 49 248 2.0 7.0 0.01 0.63 0.00 95 1004.0
20260507034533 50 301 0.0 3.0 0.01 0.63 0.63 94 1003.7
20260507033131 50 302 0.0 3.0 0.01 0.63 0.63 93 1003.5
20260507031530 50 290 1.0 7.0 0.00 0.62 0.62 93 1003.7
20260507030029 51 281 1.0 9.0 0.00 0.62 0.62 94 1003.5
20260507024527 50 289 2.0 6.0 0.01 0.62 0.62 94 1003.3
20260507023025 51 252 2.0 7.0 0.01 0.62 0.62 94 1003.3
20260507021522 51 205 3.0 9.0 0.02 0.62 0.62 93 1003.3
20260507020023 53 173 4.0 6.0 0.02 0.62 0.62 94 1003.2
20260507014526 53 217 2.0 8.0 0.01 0.61 0.61 95 1003.2
20260507013023 54 94 2.0 5.0 0.01 0.61 0.61 94 1002.9
20260507011520 54 315 1.0 4.0 0.00 0.60 0.60 93 1002.9
20260507010018 55 300 3.0 7.0 0.00 0.60 0.60 94 1003.2
20260507004531 55 242 0.0 3.0 0.00 0.60 0.60 95 1002.8
20260507003016 56 248 2.0 7.0 0.01 0.60 0.60 94 1002.7
20260507001520 57 197 4.0 8.0 0.01 0.60 0.60 95 1002.6
20260507000019 57 257 2.0 8.0 0.01 0.60 0.60 95 1002.3
20260506234516 58 239 2.0 7.0 0.02 0.60 0.60 96 1002.3
20260506233013 58 259 1.0 9.0 0.02 0.59 0.59 96 1002.2
20260506231528 58 219 4.0 10.0 0.03 0.59 0.59 96 1002.3
20260506230011 58 269 4.0 9.0 0.04 0.59 0.59 96 1002.3
20260506224509 58 257 1.0 4.0 0.06 0.62 0.57 96 1002.0
20260506223007 58 232 0.0 5.0 0.07 0.61 0.56 96 1002.2
20260506221506 58 249 1.0 4.0 0.10 0.60 0.56 96 1002.4
20260506220004 58 146 0.0 4.0 0.14 0.59 0.55 96 1002.5
20260506214503 58 242 0.0 2.0 0.19 0.59 0.52 95 1002.6
20260506213140 58 242 0.0 2.0 0.21 0.56 0.50 95 1002.8
20260506211623 58 242 1.0 3.0 0.17 0.53 0.46 95 1003.0
20260506204559 59 250 2.0 8.0 0.09 0.41 0.34 95 1003.3
20260506203054 59 147 0.0 3.0 0.07 0.36 0.28 95 1003.4
20260506201601 59 209 2.0 6.0 0.09 0.36 0.28 95 1003.6
20260506200059 59 205 0.0 7.0 0.08 0.34 0.27 95 1003.6
20260506194603 59 183 3.0 7.0 0.09 0.32 0.25 95 1003.8
20260506193050 59 205 1.0 4.0 0.08 0.28 0.22 95 1003.9
20260506191551 59 219 0.0 7.0 0.08 0.27 0.20 95 1004.1
20260506190047 59 219 1.0 4.0 0.09 0.25 0.18 95 1004.1
20260506184553 59 290 0.0 2.0 0.10 0.23 0.16 95 1004.3
20260506183058 59 290 0.0 1.0 0.11 0.21 0.14 95 1004.4
20260506181544 59 290 0.0 2.0 0.10 0.19 0.12 94 1004.7
20260506180048 59 292 0.0 2.0 0.08 0.16 0.09 94 1004.8
20260506174544 59 292 0.0 1.0 0.05 0.13 0.06 94 1005.1
20260506173049 60 292 0.0 2.0 0.02 0.10 0.03 92 1005.1
20260506171542 60 292 0.0 1.0 0.02 0.09 0.02 91 1004.9
20260506170100 61 292 0.0 0.0 0.01 0.08 0.01 87 1005.0
20260506164538 61 292 0.0 2.0 0.01 0.08 0.01 84 1005.1
20260506163039 61 292 0.0 3.0 0.01 0.08 0.01 86 1005.2
20260506161534 60 254 0.0 3.0 0.00 0.07 0.00 88 1005.6
20260506160034 60 142 0.0 3.0 0.00 0.07 0.00 86 1006.4